This demonstration page uses our WeatherBlox Daily Observations layout. Learn more.

Left ArrowRight Arrow

Hourly Observations for September 16, 2018

Temp ( °F °C ) Dew Point ( °F °C ) Humidity (%) Winds ( mph kmh ) Pressure ( in mb ) Visibility ( mi km ) Precip ( " mm )
12:57 am 00:57 Clear 70 21.1 65 18.3 84 84 S 9 15 30.00 1016 10 16 0.00 0.00
1:57 am 01:57 Clear 68 20 64 17.8 87 87 S 8 13 30.00 1016 10 16 0.00 0.00
3:57 am 03:57 Clear 66 18.9 63 17.2 90 90 S 7 11 29.99 1016 10 16 0.00 0.00
4:57 am 04:57 Clear 65 18.3 63 17.2 93 93 S 9 15 29.98 1015 10 16 0.00 0.00
5:57 am 05:57 Clear 65 18.3 63 17.2 93 93 S 8 13 29.98 1015 10 16 0.00 0.00
6:57 am 06:57 Clear 65 18.3 63 17.2 93 93 S 12 19 29.98 1015 10 16 0.00 0.00
7:57 am 07:57 Sunny 66 18.9 63 17.2 90 90 SSE 9 15 29.98 1015 10 16 0.00 0.00
8:57 am 08:57 Sunny 70 21.1 65 18.3 84 84 S 10 17 29.98 1015 10 16 0.00 0.00
9:57 am 09:57 Sunny 74 23.3 67 19.4 79 79 S 17 28 29.98 1015 10 16 0.00 0.00
10:57 am 10:57 Partly Cloudy 78 25.6 67 19.4 69 69 S 22 35 29.96 1015 10 16 0.00 0.00
11:57 am 11:57 Partly Cloudy 81 27.2 68 20 65 65 S 23 37 29.95 1014 10 16 0.00 0.00
12:57 pm 12:57 Partly Cloudy 83 28.3 68 20 61 61 S 23 37 29.92 1013 10 16 0.00 0.00
1:57 pm 13:57 Mostly Sunny 85 29.4 68 20 57 57 S 24 39 29.90 1013 10 16 0.00 0.00
2:57 pm 14:57 Partly Cloudy 87 30.6 68 20 53 53 SSW 23 37 29.88 1012 10 16 0.00 0.00
3:57 pm 15:57 Partly Cloudy 88 31.1 67 19.4 50 50 S 20 31 29.87 1012 10 16 0.00 0.00
4:31 pm 16:31 Partly Cloudy 88 31 66 19 49 49 S 18 30 29.74 1007 10 16 0.00 0.00
4:57 pm 16:57 Sunny 87 30.6 67 19.4 51 51 S 22 35 29.86 1011 10 16 0.00 0.00
5:57 pm 17:57 Sunny 86 30 67 19.4 53 53 S 18 30 29.86 1011 10 16 0.00 0.00
6:57 pm 18:57 Sunny 84 28.9 67 19.4 57 57 S 15 24 29.86 1011 10 16 0.00 0.00
7:57 pm 19:57 Clear 79 26.1 66 18.9 65 65 S 12 19 29.87 1012 10 16 0.00 0.00
8:57 pm 20:57 Clear 76 24.4 66 18.9 72 72 SSE 8 13 29.88 1012 10 16 0.00 0.00
9:57 pm 21:57 Clear 74 23.3 67 19.4 79 79 SSE 12 19 29.88 1012 10 16 0.00 0.00
10:57 pm 22:57 Clear 74 23.3 66 18.9 76 76 S 10 17 29.89 1012 10 16 0.00 0.00
11:57 pm 23:57 Clear 73 22.8 66 18.9 79 79 S 12 19 29.88 1012 10 16 0.00 0.00

Powered by AerisWeather